Погода в Ипиле

Филиппины     7°46′44″N   122°34′34″E
темп.,
°C
ветер,
м/с
пор.,
м/с
влажн.,
%
обл.,
%
осадки,
мм/ч
давл.,
гПа
погр.,
м
20 апреля, вт
вт2023:00+24зсз1389100 0.0 1010192
02:00+24з2385100 0.1 1008216
05:00+23сз2391100 0.0 1009116
08:00+27зсз3674100 0.0 1010815
11:00+30з5859100 0.0 10101508
14:00+29з6860100 0.1 10081392
17:00+27з3776100 0.0 1008674
20:00+24з2386100 0.0 1010180
21 апреля, ср
ср2123:00+24з1289100 0.0 101198
02:00+23зсз119299 0.2 100952
05:00+23зюз1292100 0.4 100984
08:00+27юз247744 0.4 1011626
11:00+29ююз356499 0.6 10101138
14:00+30зюз56618 1.1 10081256
17:00+28з467117 0.3 1008760
20:00+24з238682 0.3 1010140
22 апреля, чт
чт2223:00+24зсз129082 0.0 101156
02:00+23зсз119193 0.0 100953
05:00+23зюз1193100 0.0 100948
08:00+27ююз2378100 0.1 1011658
11:00+30ююв356115 0.1 10101250
14:00+30ю3562100 0.7 10071184
17:00+28ююз3471100 0.3 1007489
20:00+25з2284100 0.3 1010127
23 апреля, пт
пт2323:00+24зсз118924 0.0 101049
02:00+23з119264 0.0 100856
05:00+23зюз119291 0.0 100965
08:00+27ю237825 0.0 1010618
11:00+30ю3562100 0.0 10091183
14:00+30ю4560100 0.9 10081071
17:00+28ююз2471100 0.8 1008383
20:00+24з228896 1.7 101085
24 апреля, сб
сб2423:00+24зсз129098 0.2 101054
02:00+23зсз1292100 0.2 100954
05:00+23з1193100 0.2 101052
08:00+27ююз137999 0.6 1012645
11:00+31ююз355898 0.4 10101367
14:00+31зюз455438 0.9 10081307
17:00+29з346922 0.3 1008575
20:00+25сз228689 1.3 101156